Location: Banff
(51.1667°N, 115.5667°W)
Time: 15:49:40
(UTC+00:00)

S-56A Canister/Altair - Visible Passes

Search period start: 12 May 2021 00:00
Search period end: 22 May 2021 00:00
Orbit: 631 x 2501 km, 38.9° (Epoch: 11 May)

Date Brightness Start Highest point End Pass type
(mag) Time Alt. Az. Time Alt. Az. Time Alt. Az.
12 May 10.2 03:59:37 10° W 04:12:02 39° SSW 04:21:23 10° SE visible
12 May 10.4 06:07:33 10° W 06:14:58 19° SW 06:18:55 15° SSW visible
13 May 10.4 05:33:24 10° W 05:42:13 22° SW 05:47:49 14° S visible
14 May 10.5 04:59:23 10° W 05:09:24 26° SW 05:16:43 12° S visible
15 May 10.6 04:25:27 10° W 04:36:30 29° SW 04:45:15 10° SSE visible
16 May 10.6 03:51:37 10° W 04:03:30 32° SSW 04:13:01 10° SSE visible
16 May 10.9 06:02:48 10° WSW 06:05:53 11° SW 06:08:45 10° SW visible
17 May 10.9 05:27:15 10° W 05:33:09 14° SW 05:38:24 10° SSW visible
18 May 10.9 04:52:36 10° W 05:00:22 17° SW 05:07:07 10° SSW visible
19 May 10.9 04:18:18 10° W 04:27:30 21° SW 04:35:26 10° S visible
